Wind_Speed
32 31 31 29 29 29 31 31 33 34 38 43 48 46 43 40 34 33 36 37 40 42 43 45 46 48 49 46 46 48 50 50 54 56 53 43 42 42 38 35 44 54 49
30 32 35 32 32 32 32 32 34 36 39 44 48 46 41 38 38 40 39 42 46 46 46 47 48 46 47 51 52 52 53 52 54 53 49 50 45 42 40 39 35 38 38
27 30 34 33 34 32 32 32 34 36 39 45 46 42 41 40 41 41 41 43 47 47 49 54 56 58 59 59 55 56 56 56 55 53 52 48 48 41 42 42 35 39 43
31 28 30 34 34 32 31 32 34 37 41 44 41 40 40 40 39 41 44 46 49 50 54 60 64 63 57 53 52 52 51 51 51 55 57 53 49 44 40 40 39 39 35
43 34 33 33 33 31 31 32 32 37 41 39 39 40 40 41 42 45 46 47 49 54 59 63 60 39 37 34 34 35 34 35 39 39 45 50 45 42 39 36 35 34 31
46 43 40 36 33 30 30 28 32 36 36 37 37 38 40 41 42 42 43 47 54 61 59 57 40 29 29 26 28 30 32 33 36 35 40 47 45 41 35 31 31 30 30
42 43 44 33 30 29 26 28 33 34 35 35 36 37 36 37 38 41 41 47 55 56 58 52 35 26 24 23 25 28 32 34 36 39 44 45 41 36 31 29 28 25 24
38 39 34 26 27 23 25 29 30 31 31 31 33 34 31 32 38 39 41 45 52 50 50 44 27 24 30 31 24 25 24 24 26 30 41 39 33 29 29 28 26 21 24
36 30 25 23 23 23 24 28 27 27 28 32 36 36 31 34 38 37 39 41 48 45 45 28 24 18 20 17 17 15 13 14 16 18 28 32 26 27 29 28 25 22 23
29 19 19 22 22 22 27 24 24 25 27 31 31 32 31 32 35 35 38 40 44 43 44 28 15 16 19 13 12 11 10 8 10 12 19 27 28 27 25 24 23 23 21
21 19 21 22 21 25 23 19 20 20 24 26 27 26 28 31 32 33 35 36 42 45 39 46 19 19 17 16 9 7 5 4 8 11 13 17 21 25 24 23 23 23 22
21 24 23 22 20 20 21 22 20 20 22 20 24 24 26 28 30 31 31 27 34 37 37 31 36 32 7 14 7 4 1 2 2 9 13 16 19 20 19 16 16 20 23
22 28 26 23 20 21 20 29 18 18 17 20 27 27 26 29 25 25 27 21 26 28 33 43 35 35 36 18 11 7 3 0 4 2 1 1 6 11 13 15 18 20 21
23 33 33 34 31 21 20 25 16 16 18 18 25 28 29 29 24 20 21 21 18 22 26 31 33 32 33 31 29 19 11 6 3 1 3 5 7 11 13 13 13 16 16
25 38 34 38 21 33 25 21 13 14 17 19 25 28 29 24 23 16 17 22 18 18 20 22 24 28 29 31 30 29 26 24 19 14 8 5 3 6 8 10 12 12 16
36 29 30 30 25 13 12 13 15 17 16 25 22 27 23 21 21 19 16 18 18 15 15 14 18 22 25 26 25 25 24 25 23 18 19 13 15 16 8 4 2 6 6
33 30 28 23 14 11 15 15 16 16 17 26 25 19 24 20 13 19 17 18 17 18 17 16 17 14 17 20 20 19 18 20 18 17 18 19 23 20 18 15 10 5 8
29 30 29 13 12 14 16 16 16 18 18 20 19 22 20 21 14 12 15 17 15 14 16 17 16 17 15 15 15 16 16 15 15 13 12 17 16 16 14 15 14 12 12
20 21 19 13 14 18 21 19 19 16 18 16 19 17 18 22 17 15 14 14 14 14 14 15 16 15 14 13 12 10 9 9 9 9 8 10 8 7 7 7 8 10 10
18 12 12 13 15 16 16 19 24 17 22 20 16 17 18 20 19 17 15 14 14 14 13 13 14 14 13 14 13 11 11 11 10 9 8 7 8 9 8 7 7 7 8
23 21 17 12 10 16 26 16 18 21 23 24 12 16 20 16 14 15 14 14 15 15 13 12 12 11 12 12 12 12 11 11 11 11 11 10 9 9 10 10 12 13 15
9 18 26 20 19 14 14 13 16 14 4 11 13 17 16 14 13 13 13 14 15 16 14 13 12 13 13 12 12 11 11 11 11 11 11 10 11 12 12 13 13 13 14
4 4 11 17 14 14 13 16 9 15 10 7 12 20 21 18 14 13 13 15 16 15 15 14 14 13 13 12 12 13 13 12 11 10 11 11 12 13 14 15 17 18 19
9 7 12 10 13 12 8 9 9 8 14 11 15 20 20 17 15 13 14 15 16 17 14 13 12 13 14 14 14 14 13 14 14 13 13 13 14 15 17 18 19 20 21
12 12 12 6 11 7 11 12 14 13 12 11 16 17 17 16 14 13 15 15 16 16 15 13 12 12 15 16 14 14 14 13 13 14 15 15 15 16 19 20 21 21 22
5 4 6 9 14 20 21 13 8 11 15 19 16 16 14 14 13 14 13 15 17 16 16 17 18 18 15 14 13 14 14 16 16 16 16 17 19 20 23 23 23 24 23
Wind_Direction
255 257 259 266 272 275 283 295 304 312 318 322 322 323 322 320 316 311 308 306 303 300 296 294 292 292 289 284 279 272 266 264 265 263 261 263 258 254 258 254 249 255 249
275 264 260 263 266 271 280 293 302 310 317 320 320 323 323 321 315 313 310 306 306 307 303 299 295 290 286 284 276 272 267 265 263 262 259 257 258 255 251 248 245 232 248
304 286 266 262 264 269 280 291 300 309 316 318 319 323 327 323 318 316 314 311 311 309 307 303 303 297 286 285 273 274 266 265 258 255 260 258 251 252 250 248 252 252 273
293 299 290 275 267 269 280 291 301 311 318 318 319 326 327 324 319 315 316 315 312 307 306 307 308 301 288 274 269 267 269 266 257 255 254 254 248 246 247 243 245 244 256
290 291 294 284 269 269 282 292 305 316 318 318 324 328 326 322 320 317 316 315 310 312 315 316 312 306 308 284 266 265 266 263 256 253 242 240 241 240 243 243 246 244 245
286 289 289 287 270 272 281 301 311 317 318 324 326 325 325 323 319 319 319 318 323 320 313 320 311 303 296 284 275 273 271 265 253 242 234 233 237 239 239 240 241 239 238
287 287 287 283 266 275 295 308 312 315 320 323 324 323 321 322 322 323 327 330 330 325 317 312 306 307 299 293 278 273 273 267 256 243 235 233 235 236 234 234 236 237 239
282 281 282 265 268 285 300 309 314 316 321 321 319 318 321 326 329 333 337 340 333 328 327 315 307 304 301 285 294 293 279 264 263 251 231 227 233 231 227 229 229 231 237
283 282 269 261 277 292 302 311 312 315 318 320 318 315 317 329 340 333 340 337 341 341 342 333 307 318 324 309 298 294 279 267 258 239 217 219 224 222 225 225 227 226 234
282 266 254 268 282 298 300 306 309 314 316 312 312 317 318 339 337 332 341 342 347 354 7 345 330 330 344 321 308 309 296 253 235 215 208 213 217 215 220 221 225 233 243
274 259 261 269 281 293 290 303 302 304 305 309 316 318 336 338 336 340 338 356 352 359 356 22 360 330 349 352 323 318 310 250 214 199 198 203 207 216 220 227 231 237 248
265 261 261 267 270 273 291 293 293 309 305 315 329 334 335 329 337 342 342 358 358 3 13 14 22 40 11 354 352 305 327 249 177 172 173 185 194 203 217 227 234 242 246
264 260 258 258 265 271 289 292 305 295 290 324 344 333 330 334 337 340 339 350 3 0 17 11 17 30 47 48 36 32 8 36 158 169 333 248 162 188 214 226 239 246 248
279 268 265 248 258 272 302 288 276 293 300 325 328 329 323 333 336 335 334 2 7 3 15 14 18 27 43 51 57 56 52 55 78 204 220 234 220 230 239 245 253 255 264
257 304 276 270 280 324 285 246 264 288 299 289 313 322 320 335 333 339 342 9 2 3 1 357 21 29 40 42 47 53 72 70 69 76 75 61 1 319 280 265 262 267 267
297 291 305 301 322 312 249 264 266 282 275 301 309 320 325 335 336 340 359 11 3 347 338 350 11 25 30 37 40 52 59 64 70 68 68 64 76 68 68 58 349 280 311
283 292 291 303 289 271 263 262 259 265 269 295 295 302 321 329 341 334 1 7 4 357 339 328 348 8 21 21 25 38 45 55 60 68 73 69 67 73 72 70 74 70 88
292 285 282 271 245 247 251 255 267 279 279 296 297 306 314 322 344 352 357 358 354 352 355 358 359 359 11 20 30 25 26 33 31 39 55 80 72 69 66 70 67 64 69
292 290 272 258 257 254 248 254 256 255 274 275 308 284 309 333 341 350 4 350 351 357 359 358 3 6 8 10 17 29 33 28 29 28 27 20 30 33 30 28 38 42 50
283 267 271 259 257 246 262 255 265 281 282 283 296 302 320 329 327 336 353 345 344 348 354 356 7 356 359 7 10 12 11 10 10 5 7 8 352 346 344 341 335 335 336
270 256 259 251 251 265 278 272 284 295 279 263 276 295 305 319 329 333 339 339 340 338 348 2 359 351 351 358 358 2 2 2 1 358 1 6 356 345 341 338 341 341 333
314 242 236 272 264 276 291 278 294 278 265 210 276 287 310 322 333 327 335 335 335 333 343 353 351 343 346 347 348 350 351 349 349 348 346 347 340 340 335 335 334 325 323
329 252 260 269 277 280 287 304 271 251 209 246 268 285 308 319 324 332 329 328 330 330 338 346 345 341 343 346 343 344 343 340 340 337 338 340 339 339 335 331 328 326 322
304 281 292 294 261 244 262 283 249 201 252 258 280 292 304 311 322 331 320 324 325 325 337 343 348 342 333 340 338 336 338 337 338 340 340 336 336 334 327 326 321 315 313
317 306 304 221 214 191 153 200 197 206 235 268 283 287 296 308 320 321 317 319 319 322 327 335 340 335 327 330 331 333 333 335 333 331 329 327 329 326 320 319 315 312 310
301 275 159 201 185 155 173 205 237 252 260 277 285 292 302 308 309 307 316 316 318 322 327 330 327 325 331 331 333 332 331 330 330 328 325 323 324 325 321 320 317 316 314
Height
3195 3196 3196 3196 3197 3196 3195 3193 3190 3187 3183 3177 3172 3167 3159 3153 3147 3143 3139 3135 3131 3127 3123 3118 3114 3111 3107 3104 3101 3099 3098 3099 3092 3094 3098 3102 3105 3109 3113 3115 3119 3127 3128
3189 3190 3190 3191 3190 3190 3189 3187 3184 3181 3175 3170 3165 3159 3153 3146 3140 3135 3130 3126 3120 3114 3110 3104 3099 3096 3090 3088 3084 3080 3078 3081 3079 3078 3084 3088 3091 3096 3101 3106 3112 3111 3118
3184 3185 3185 3184 3183 3183 3182 3180 3178 3174 3169 3165 3159 3151 3144 3139 3133 3126 3120 3115 3110 3102 3095 3088 3082 3077 3069 3065 3061 3058 3058 3059 3062 3064 3067 3073 3079 3083 3086 3089 3096 3100 3100
3180 3180 3179 3178 3177 3177 3176 3174 3171 3166 3161 3157 3151 3143 3137 3131 3124 3117 3111 3105 3098 3089 3081 3072 3063 3051 3042 3040 3039 3038 3038 3039 3041 3046 3052 3057 3063 3071 3075 3078 3083 3090 3093
3169 3174 3173 3171 3170 3170 3169 3167 3163 3159 3154 3149 3142 3136 3130 3124 3117 3110 3102 3095 3084 3074 3064 3054 3042 3033 3025 3020 3020 3023 3024 3024 3026 3030 3035 3042 3049 3057 3063 3072 3076 3079 3082
3163 3164 3165 3164 3163 3163 3161 3160 3157 3152 3148 3142 3135 3130 3125 3118 3110 3102 3095 3085 3074 3061 3047 3041 3031 3025 3019 3015 3013 3012 3013 3013 3015 3018 3024 3029 3038 3047 3056 3062 3067 3070 3075
3157 3156 3154 3155 3156 3156 3155 3153 3150 3146 3140 3135 3130 3125 3120 3112 3104 3096 3088 3077 3066 3051 3037 3028 3021 3017 3012 3008 3006 3004 3002 3001 3003 3009 3013 3020 3030 3039 3048 3054 3059 3064 3070
3150 3147 3148 3149 3150 3149 3149 3147 3143 3138 3134 3129 3124 3119 3114 3107 3098 3089 3082 3073 3061 3047 3028 3015 3009 3008 3004 2999 2998 2995 2992 2992 2994 2996 3002 3015 3025 3034 3040 3046 3051 3056 3060
3143 3141 3143 3145 3145 3144 3143 3140 3136 3132 3127 3122 3119 3114 3109 3102 3093 3084 3077 3068 3055 3041 3025 3010 3003 3001 2997 2993 2991 2989 2987 2987 2989 2990 2997 3009 3019 3026 3032 3038 3043 3048 3053
3136 3136 3138 3139 3139 3137 3137 3133 3130 3126 3121 3116 3113 3108 3103 3098 3090 3083 3073 3064 3053 3038 3025 3008 3000 2999 2993 2990 2989 2987 2987 2986 2987 2990 2996 3004 3012 3019 3025 3032 3036 3040 3044
3131 3131 3132 3133 3132 3131 3131 3127 3124 3120 3117 3112 3108 3103 3099 3094 3089 3081 3072 3062 3051 3039 3027 3010 3000 2998 2994 2990 2988 2988 2987 2987 2988 2990 2994 3000 3007 3015 3021 3026 3029 3033 3037
3124 3125 3124 3124 3123 3123 3124 3122 3117 3116 3113 3110 3105 3098 3095 3093 3087 3079 3072 3062 3054 3044 3030 3021 3010 2998 2993 2992 2990 2989 2988 2988 2988 2991 2993 2998 3005 3011 3016 3020 3024 3027 3028
3113 3116 3115 3115 3117 3116 3115 3117 3113 3109 3108 3105 3100 3097 3094 3090 3083 3078 3071 3062 3056 3048 3036 3029 3017 3007 2997 2994 2992 2991 2991 2991 2991 2991 2995 2995 3000 3009 3014 3017 3019 3022 3023
3102 3109 3109 3104 3104 3108 3109 3111 3106 3104 3102 3100 3099 3094 3090 3086 3081 3076 3070 3061 3057 3052 3043 3035 3027 3016 3006 3003 2997 2995 2995 2996 2997 2998 3000 3002 3005 3008 3011 3013 3016 3017 3018
3097 3095 3099 3099 3101 3104 3100 3099 3099 3098 3098 3096 3095 3091 3087 3083 3078 3074 3068 3059 3056 3052 3047 3042 3034 3026 3017 3011 3006 3003 3001 3000 3000 3000 3001 3003 3004 3006 3008 3010 3012 3013 3014
3093 3095 3094 3095 3094 3091 3094 3094 3093 3094 3093 3093 3090 3088 3084 3080 3077 3073 3066 3059 3056 3052 3048 3043 3038 3031 3026 3020 3017 3013 3010 3007 3007 3007 3005 3005 3005 3005 3006 3006 3007 3008 3009
3088 3088 3088 3088 3087 3086 3087 3087 3088 3088 3089 3088 3085 3082 3080 3077 3076 3071 3064 3059 3057 3053 3048 3043 3038 3034 3030 3027 3025 3022 3018 3014 3013 3013 3012 3011 3010 3010 3010 3008 3007 3007 3007
3079 3079 3080 3080 3080 3078 3080 3082 3082 3084 3083 3081 3080 3079 3077 3074 3072 3070 3063 3058 3057 3054 3049 3044 3040 3036 3032 3030 3029 3026 3024 3022 3021 3018 3015 3015 3015 3014 3013 3012 3012 3011 3011
3071 3072 3073 3073 3074 3074 3075 3078 3078 3077 3077 3076 3076 3074 3074 3069 3067 3067 3062 3059 3056 3053 3049 3045 3042 3038 3035 3031 3029 3028 3026 3025 3023 3022 3021 3020 3018 3017 3016 3015 3013 3013 3013
3067 3068 3070 3070 3069 3070 3073 3074 3074 3073 3072 3072 3072 3071 3069 3066 3065 3063 3060 3058 3055 3052 3049 3046 3044 3039 3036 3034 3031 3028 3026 3025 3024 3023 3022 3021 3019 3018 3017 3015 3014 3013 3013
3059 3061 3064 3065 3066 3067 3068 3069 3069 3066 3065 3066 3068 3068 3066 3065 3063 3060 3058 3055 3052 3050 3047 3046 3043 3040 3037 3035 3032 3030 3028 3026 3024 3023 3022 3020 3019 3017 3016 3015 3013 3012 3010
3052 3051 3057 3061 3062 3064 3065 3065 3066 3065 3065 3066 3066 3064 3062 3062 3060 3059 3056 3052 3050 3048 3045 3044 3042 3038 3036 3034 3032 3030 3028 3027 3025 3023 3021 3020 3018 3016 3014 3013 3012 3010 3008
3058 3057 3057 3057 3056 3058 3061 3061 3060 3061 3062 3060 3062 3061 3059 3056 3056 3056 3053 3049 3047 3046 3043 3041 3039 3037 3034 3032 3031 3029 3027 3025 3024 3022 3020 3018 3016 3014 3013 3011 3009 3007 3005
3054 3053 3052 3049 3051 3053 3055 3057 3056 3056 3057 3058 3059 3059 3056 3054 3054 3053 3049 3047 3044 3042 3042 3039 3038 3035 3032 3030 3029 3026 3024 3023 3021 3019 3017 3016 3014 3012 3010 3008 3006 3003 3002
3047 3046 3046 3046 3047 3049 3052 3053 3052 3055 3058 3058 3058 3056 3054 3052 3051 3050 3046 3044 3041 3039 3038 3038 3036 3033 3030 3028 3026 3024 3022 3021 3020 3018 3016 3013 3011 3009 3006 3004 3002 2999 2996
3044 3044 3044 3046 3047 3048 3050 3052 3054 3056 3056 3055 3054 3052 3052 3050 3048 3046 3044 3040 3038 3036 3035 3033 3031 3029 3028 3026 3024 3022 3021 3019 3017 3015 3012 3009 3007 3004 3001 2998 2995 2992 2989